This is the latest recevied weather packets stored in our database for station/object KB1ZFK. If no packets are shown the sender has not sent any weather packets the latest 10 day(s).
| Time | Temp. | Humidity | Pressure | Rain* | Wind** | Luminosity | Snow |
|---|---|---|---|---|---|---|---|
| 1778056436 | 14.44° C | 80% | 1008.8 hPa | 0 mm | - | 0 W/m² | - |
| 1778056133 | 15° C | 79% | 1008.9 hPa | 0 mm | - | 0 W/m² | - |
| 1778055830 | 15.56° C | 77% | 1008.8 hPa | 0 mm | - | 0 W/m² | - |
| 1778055526 | 15.56° C | 76% | 1009 hPa | 0 mm | - | 0 W/m² | - |
| 1778055224 | 15.56° C | 76% | 1008.9 hPa | 0 mm | - | 0 W/m² | - |
| 1778054921 | 15.56° C | 76% | 1008.7 hPa | 0 mm | - | 0 W/m² | - |
| 1778054618 | 15.56° C | 75% | 1008.8 hPa | 0 mm | - | 0 W/m² | - |
| 1778054316 | 15.56° C | 75% | 1008.9 hPa | 0 mm | - | 0 W/m² | - |
| 1778054013 | 16.11° C | 75% | 1008.7 hPa | 0 mm | - | 0 W/m² | - |
| 1778053710 | 16.11° C | 74% | 1008.8 hPa | 0 mm | - | 0 W/m² | - |
| 1778053407 | 16.11° C | 74% | 1008.9 hPa | 0 mm | - | 0 W/m² | - |
| 1778053104 | 16.11° C | 73% | 1008.8 hPa | 0 mm | - | 0 W/m² | - |
| 1778052802 | 16.11° C | 73% | 1008.9 hPa | 0 mm | - | 0 W/m² | - |
| 1778052499 | 16.11° C | 73% | 1008.8 hPa | 0 mm | - | 0 W/m² | - |
| 1778052196 | 16.67° C | 72% | 1008.6 hPa | 0 mm | - | 0 W/m² | - |
| 1778051894 | 16.11° C | 72% | 1008.8 hPa | 0 mm | - | 0 W/m² | - |
| 1778051592 | 16.11° C | 72% | 1008.8 hPa | 0 mm | - | 0 W/m² | - |
| 1778051288 | 16.67° C | 72% | 1008.8 hPa | 0 mm | - | 0 W/m² | - |
| 1778050985 | 16.67° C | 72% | 1008.5 hPa | 0 mm | - | 0 W/m² | - |
| 1778050683 | 16.67° C | 70% | 1008.5 hPa | 0 mm | - | 0 W/m² | - |
| 1778050380 | 16.67° C | 70% | 1008.4 hPa | 0 mm | - | 0 W/m² | - |
| 1778050076 | 16.67° C | 69% | 1008.5 hPa | 0 mm | - | 0 W/m² | - |
| 1778049772 | 17.22° C | 69% | 1008.4 hPa | 0 mm | - | 0 W/m² | - |
| 1778049470 | 17.22° C | 69% | 1008.3 hPa | 0 mm | - | 0 W/m² | - |
| 1778049167 | 17.22° C | 69% | 1008.2 hPa | 0 mm | - | 0 W/m² | - |
* Rain latest hour (hover to see other rain measurements)
** Current wind speed in m/s (hover to see current wind gust speed)